Time,TemperatureF,DewpointF,PressureIn,WindDirection,WindDirectionDegrees,WindSpeedMPH,WindSpeedGustMPH,Humidity,HourlyPrecipIn,Conditions,Clouds,dailyrainin,SoftwareType,DateUTC
2013-01-30 00:02:00,34.0,33.0,-100.00,NNE,15,9.0,14.0,95,0.11,,,-99.99,,2013-01-30 06:02:00,
2013-01-30 00:11:00,34.0,33.0,-100.00,North,10,11.0,14.0,95,0.08,,,-99.99,,2013-01-30 06:11:00,
2013-01-30 00:21:00,34.0,33.0,-100.00,NNE,20,9.0,14.0,95,0.08,,,-99.99,,2013-01-30 06:21:00,
2013-01-30 00:32:00,34.0,33.0,-100.00,North,10,9.0,13.0,95,0.27,,,-99.99,,2013-01-30 06:32:00,
2013-01-30 00:42:00,34.0,33.0,-100.00,North,10,9.0,13.0,95,0.27,,,-99.99,,2013-01-30 06:42:00,
2013-01-30 00:51:00,33.0,32.0,-100.00,North,10,11.0,14.0,95,0.04,,,-99.99,,2013-01-30 06:51:00,
2013-01-30 01:02:00,33.0,32.0,-100.00,North,10,11.0,14.0,95,0.04,,,-99.99,,2013-01-30 07:02:00,
2013-01-30 01:11:00,33.0,32.0,-100.00,North,10,9.0,12.0,95,0.03,,,-99.99,,2013-01-30 07:11:00,
2013-01-30 01:21:00,33.0,32.0,-100.00,North,5,7.0,12.0,95,0.04,,,-99.99,,2013-01-30 07:21:00,
2013-01-30 01:32:00,33.0,32.0,-100.00,NNW,340,5.0,11.0,95,0.04,,,-99.99,,2013-01-30 07:32:00,
2013-01-30 01:41:00,33.0,32.0,-100.00,NNE,25,6.0,13.0,95,0.03,,,-99.99,,2013-01-30 07:41:00,
2013-01-30 01:52:00,32.0,31.0,-100.00,NNE,30,7.0,13.0,95,0.07,,,-99.99,,2013-01-30 07:52:00,
2013-01-30 02:01:00,32.0,31.0,-100.00,NNE,30,7.0,13.0,95,0.07,,,-99.99,,2013-01-30 08:01:00,
2013-01-30 02:11:00,32.0,31.0,-100.00,NE,35,9.0,12.0,95,0.01,,,-99.99,,2013-01-30 08:11:00,
2013-01-30 02:21:00,32.0,31.0,-100.00,NE,40,9.0,12.0,95,0.03,,,-99.99,,2013-01-30 08:21:00,
2013-01-30 02:32:00,32.0,31.0,-100.00,NE,40,11.0,18.0,95,0.31,,,-99.99,,2013-01-30 08:32:00,
2013-01-30 02:42:00,32.0,31.0,-100.00,NE,40,11.0,18.0,95,0.31,,,-99.99,,2013-01-30 08:42:00,
2013-01-30 02:52:00,33.0,31.0,-100.00,NE,40,10.0,17.0,95,0.11,,,-99.99,,2013-01-30 08:52:00,
2013-01-30 03:01:00,33.0,31.0,-100.00,NE,40,10.0,17.0,95,0.11,,,-99.99,,2013-01-30 09:01:00,
2013-01-30 03:11:00,33.0,31.0,-100.00,NE,40,11.0,20.0,95,0.04,,,-99.99,,2013-01-30 09:11:00,
2013-01-30 03:21:00,33.0,32.0,-100.00,NNE,25,8.0,16.0,95,0.01,,,-99.99,,2013-01-30 09:21:00,
2013-01-30 03:32:00,33.0,31.0,-100.00,NE,40,9.0,16.0,95,0.06,,,-99.99,,2013-01-30 09:32:00,
2013-01-30 03:41:00,33.0,31.0,-100.00,North,5,9.0,12.0,95,0.04,,,-99.99,,2013-01-30 09:41:00,
2013-01-30 03:51:00,32.0,31.0,-100.00,NNE,30,8.0,13.0,95,0.04,,,-99.99,,2013-01-30 09:51:00,
2013-01-30 04:01:00,32.0,31.0,-100.00,NNE,30,8.0,13.0,95,0.04,,,-99.99,,2013-01-30 10:01:00,
2013-01-30 04:11:00,32.0,31.0,-100.00,North,10,11.0,15.0,95,0.23,,,-99.99,,2013-01-30 10:11:00,
2013-01-30 04:21:00,32.0,31.0,-100.00,North,10,10.0,14.0,95,0.27,,,-99.99,,2013-01-30 10:21:00,
2013-01-30 04:32:00,32.0,31.0,-100.00,North,10,11.0,17.0,95,0.01,,,-99.99,,2013-01-30 10:32:00,
2013-01-30 04:41:00,32.0,31.0,-100.00,NNW,340,10.0,15.0,95,0.40,,,-99.99,,2013-01-30 10:41:00,
2013-01-30 04:52:00,32.0,31.0,-100.00,North,10,12.0,21.0,95,0.03,,,-99.99,,2013-01-30 10:52:00,
2013-01-30 05:02:00,32.0,31.0,-100.00,North,10,12.0,21.0,95,0.03,,,-99.99,,2013-01-30 11:02:00,
2013-01-30 05:11:00,31.0,29.0,-100.00,North,10,14.0,24.0,95,0.06,,,-99.99,,2013-01-30 11:11:00,
2013-01-30 05:22:00,30.0,29.0,-100.00,North,5,9.0,23.0,95,0.06,,,-99.99,,2013-01-30 11:22:00,
2013-01-30 05:32:00,30.0,28.0,-100.00,NNW,335,12.0,21.0,95,0.10,,,-99.99,,2013-01-30 11:32:00,
2013-01-30 05:42:00,29.0,28.0,-100.00,NW,325,13.0,24.0,95,0.07,,,-99.99,,2013-01-30 11:42:00,
2013-01-30 05:52:00,29.0,28.0,-100.00,NNW,345,17.0,24.0,95,0.08,,,-99.99,,2013-01-30 11:52:00,
2013-01-30 06:02:00,29.0,28.0,-100.00,NNW,345,17.0,24.0,95,0.08,,,-99.99,,2013-01-30 12:02:00,
2013-01-30 06:12:00,29.0,27.0,-100.00,North,0,13.0,22.0,95,2.49,,,-99.99,,2013-01-30 12:12:00,
2013-01-30 06:22:00,29.0,27.0,-100.00,North,5,11.0,21.0,95,0.13,,,-99.99,,2013-01-30 12:22:00,
2013-01-30 06:32:00,28.0,27.0,-100.00,NNE,15,19.0,33.0,95,0.14,,,-99.99,,2013-01-30 12:32:00,
2013-01-30 06:42:00,28.0,27.0,-100.00,North,5,15.0,30.0,95,1.54,,,-99.99,,2013-01-30 12:42:00,
2013-01-30 07:03:00,28.0,27.0,-100.00,NNE,15,14.0,29.0,95,0.08,,,-99.99,,2013-01-30 13:03:00,
2013-01-30 07:12:00,28.0,27.0,-100.00,North,5,11.0,23.0,95,0.08,,,-99.99,,2013-01-30 13:12:00,
2013-01-30 07:23:00,28.0,27.0,-100.00,NNE,15,9.0,14.0,95,0.08,,,-99.99,,2013-01-30 13:23:00,
2013-01-30 07:32:00,27.0,26.0,-100.00,NNE,15,16.0,27.0,95,0.07,,,-99.99,,2013-01-30 13:32:00,
2013-01-30 07:42:00,27.0,26.0,-100.00,NNE,15,16.0,27.0,95,0.07,,,-99.99,,2013-01-30 13:42:00,
2013-01-30 07:52:00,27.0,26.0,-100.00,NNE,15,24.0,31.0,95,0.04,,,-99.99,,2013-01-30 13:52:00,
2013-01-30 08:02:00,27.0,26.0,-100.00,NNE,15,24.0,31.0,95,0.04,,,-99.99,,2013-01-30 14:02:00,
2013-01-30 08:12:00,27.0,26.0,-100.00,North,5,17.0,32.0,95,0.01,,,-99.99,,2013-01-30 14:12:00,
2013-01-30 08:22:00,27.0,26.0,-100.00,NNE,15,17.0,26.0,95,0.00,,,-99.99,,2013-01-30 14:22:00,
2013-01-30 08:33:00,26.0,25.0,-100.00,NNE,15,16.0,27.0,95,0.04,,,-99.99,,2013-01-30 14:33:00,
2013-01-30 08:42:00,26.0,25.0,-100.00,NNE,15,16.0,27.0,95,0.04,,,-99.99,,2013-01-30 14:42:00,
2013-01-30 08:52:00,25.0,24.0,-100.00,North,5,16.0,28.0,95,0.04,,,-99.99,,2013-01-30 14:52:00,
2013-01-30 09:03:00,25.0,24.0,-100.00,North,5,16.0,28.0,95,0.04,,,-99.99,,2013-01-30 15:03:00,
2013-01-30 09:12:00,26.0,24.0,-100.00,North,5,17.0,26.0,95,0.03,,,-99.99,,2013-01-30 15:12:00,
2013-01-30 09:23:00,26.0,24.0,-100.00,North,10,13.0,26.0,95,0.03,,,-99.99,,2013-01-30 15:23:00,
2013-01-30 09:33:00,26.0,25.0,-100.00,NNE,15,11.0,19.0,95,0.08,,,-99.99,,2013-01-30 15:33:00,
2013-01-30 09:43:00,26.0,25.0,-100.00,NNE,15,11.0,19.0,95,0.08,,,-99.99,,2013-01-30 15:43:00,
2013-01-30 09:52:00,26.0,25.0,-100.00,North,0,11.0,17.0,95,0.01,,,-99.99,,2013-01-30 15:52:00,
2013-01-30 10:03:00,26.0,25.0,-100.00,North,0,11.0,17.0,95,0.01,,,-99.99,,2013-01-30 16:03:00,
2013-01-30 10:12:00,25.0,24.0,-100.00,North,10,14.0,29.0,95,0.06,,,-99.99,,2013-01-30 16:12:00,
2013-01-30 10:23:00,25.0,24.0,-100.00,North,0,14.0,27.0,95,0.03,,,-99.99,,2013-01-30 16:23:00,
2013-01-30 10:32:00,25.0,24.0,-100.00,North,10,17.0,28.0,95,0.03,,,-99.99,,2013-01-30 16:32:00,
2013-01-30 10:42:00,25.0,24.0,-100.00,North,10,17.0,28.0,95,0.03,,,-99.99,,2013-01-30 16:42:00,
2013-01-30 10:52:00,24.0,23.0,-100.00,NNW,335,20.0,29.0,95,0.03,,,-99.99,,2013-01-30 16:52:00,
2013-01-30 11:02:00,24.0,23.0,-100.00,NNW,335,20.0,29.0,95,0.03,,,-99.99,,2013-01-30 17:02:00,
2013-01-30 11:12:00,23.0,22.0,-100.00,NNW,335,19.0,29.0,95,0.04,,,-99.99,,2013-01-30 17:12:00,
2013-01-30 11:22:00,23.0,22.0,-100.00,NNW,335,17.0,29.0,95,0.06,,,-99.99,,2013-01-30 17:22:00,
2013-01-30 11:32:00,23.0,22.0,-100.00,NNW,335,16.0,28.0,95,0.18,,,-99.99,,2013-01-30 17:32:00,
2013-01-30 11:42:00,23.0,22.0,-100.00,NNW,340,17.0,29.0,95,0.13,,,-99.99,,2013-01-30 17:42:00,
2013-01-30 11:53:00,23.0,22.0,-100.00,NNW,340,11.0,30.0,95,0.07,,,-99.99,,2013-01-30 17:53:00,
2013-01-30 12:02:00,23.0,22.0,-100.00,NNW,340,11.0,30.0,95,0.07,,,-99.99,,2013-01-30 18:02:00,
2013-01-30 12:12:00,22.0,21.0,-100.00,NNW,340,14.0,32.0,95,0.03,,,-99.99,,2013-01-30 18:12:00,
2013-01-30 12:22:00,22.0,21.0,-100.00,NW,320,11.0,24.0,95,0.03,,,-99.99,,2013-01-30 18:22:00,
2013-01-30 12:33:00,21.0,20.0,-100.00,NW,320,16.0,28.0,95,0.01,,,-99.99,,2013-01-30 18:33:00,
2013-01-30 12:42:00,21.0,20.0,-100.00,NW,320,16.0,28.0,95,0.01,,,-99.99,,2013-01-30 18:42:00,
2013-01-30 12:52:00,21.0,20.0,-100.00,NNW,335,22.0,35.0,95,0.04,,,-99.99,,2013-01-30 18:52:00,
2013-01-30 13:02:00,21.0,20.0,-100.00,NW,325,19.0,29.0,95,0.01,,,-99.99,,2013-01-30 19:02:00,
2013-01-30 13:12:00,22.0,21.0,-100.00,NW,320,10.0,25.0,95,0.01,,,-99.99,,2013-01-30 19:12:00,
2013-01-30 13:22:00,21.0,20.0,-100.00,NW,320,18.0,28.0,95,0.01,,,-99.99,,2013-01-30 19:22:00,
2013-01-30 13:32:00,22.0,20.0,-100.00,NNW,340,15.0,32.0,95,0.00,,,-99.99,,2013-01-30 19:32:00,
2013-01-30 13:42:00,22.0,20.0,-100.00,NNW,340,15.0,32.0,95,0.00,,,-99.99,,2013-01-30 19:42:00,
2013-01-30 13:52:00,22.0,21.0,-100.00,NW,325,21.0,34.0,95,0.00,,,-99.99,,2013-01-30 19:52:00,
2013-01-30 14:03:00,22.0,21.0,-100.00,NW,325,21.0,34.0,95,0.00,,,-99.99,,2013-01-30 20:03:00,
2013-01-30 14:12:00,22.0,21.0,-100.00,NNW,335,17.0,27.0,95,0.00,,,-99.99,,2013-01-30 20:12:00,
2013-01-30 14:22:00,22.0,21.0,-100.00,NW,325,18.0,28.0,95,0.00,,,-99.99,,2013-01-30 20:22:00,
2013-01-30 14:33:00,22.0,21.0,-100.00,NNW,330,16.0,29.0,95,0.00,,,-99.99,,2013-01-30 20:33:00,
2013-01-30 14:42:00,22.0,21.0,-100.00,NW,320,17.0,27.0,95,0.00,,,-99.99,,2013-01-30 20:42:00,
2013-01-30 14:52:00,22.0,21.0,-100.00,NW,320,19.0,28.0,95,0.00,,,-99.99,,2013-01-30 20:52:00,
2013-01-30 15:03:00,22.0,21.0,-100.00,NW,320,19.0,28.0,95,0.00,,,-99.99,,2013-01-30 21:03:00,
2013-01-30 15:12:00,22.0,21.0,-100.00,NNW,340,18.0,32.0,95,0.00,,,-99.99,,2013-01-30 21:12:00,
2013-01-30 15:22:00,22.0,21.0,-100.00,NNW,330,16.0,26.0,95,0.00,,,-99.99,,2013-01-30 21:22:00,
2013-01-30 15:32:00,22.0,21.0,-100.00,NW,325,13.0,29.0,95,0.00,,,-99.99,,2013-01-30 21:32:00,
2013-01-30 15:42:00,22.0,21.0,-100.00,NNW,335,16.0,29.0,95,0.00,,,-99.99,,2013-01-30 21:42:00,
2013-01-30 15:52:00,22.0,21.0,-100.00,NW,325,17.0,27.0,95,0.00,,,-99.99,,2013-01-30 21:52:00,
2013-01-30 16:03:00,22.0,21.0,-100.00,NW,325,17.0,27.0,95,0.00,,,-99.99,,2013-01-30 22:03:00,
2013-01-30 16:12:00,22.0,21.0,-100.00,NNW,330,13.0,22.0,95,0.00,,,-99.99,,2013-01-30 22:12:00,
2013-01-30 16:22:00,22.0,21.0,-100.00,NNW,335,13.0,24.0,95,0.00,,,-99.99,,2013-01-30 22:22:00,
2013-01-30 16:32:00,22.0,21.0,-100.00,NNW,330,12.0,22.0,95,0.00,,,-99.99,,2013-01-30 22:32:00,
2013-01-30 16:42:00,22.0,21.0,-100.00,NNW,330,12.0,22.0,95,0.00,,,-99.99,,2013-01-30 22:42:00,
2013-01-30 16:52:00,22.0,20.0,-100.00,NW,320,17.0,26.0,95,0.00,,,-99.99,,2013-01-30 22:52:00,
2013-01-30 17:02:00,22.0,20.0,-100.00,NW,320,17.0,26.0,95,0.00,,,-99.99,,2013-01-30 23:02:00,
2013-01-30 17:12:00,21.0,20.0,-100.00,NNW,335,17.0,24.0,93,0.00,,,-99.99,,2013-01-30 23:12:00,
2013-01-30 17:22:00,21.0,19.0,-100.00,NW,315,18.0,26.0,92,0.00,,,-99.99,,2013-01-30 23:22:00,
2013-01-30 17:32:00,21.0,20.0,-100.00,NNW,330,12.0,23.0,95,0.00,,,-99.99,,2013-01-30 23:32:00,
2013-01-30 17:42:00,21.0,20.0,-100.00,NNW,330,12.0,23.0,95,0.00,,,-99.99,,2013-01-30 23:42:00,
2013-01-30 17:52:00,21.0,19.0,-100.00,NNW,340,19.0,27.0,90,0.00,,,-99.99,,2013-01-30 23:52:00,
2013-01-30 18:02:00,21.0,19.0,-100.00,NNW,340,19.0,27.0,90,0.00,,,-99.99,,2013-01-31 00:02:00,
2013-01-30 18:11:00,21.0,18.0,-100.00,NW,325,19.0,24.0,88,0.00,,,-99.99,,2013-01-31 00:11:00,
2013-01-30 18:21:00,21.0,17.0,-100.00,NW,315,14.0,26.0,85,0.00,,,-99.99,,2013-01-31 00:21:00,
2013-01-30 18:32:00,20.0,16.0,-100.00,NW,320,16.0,27.0,83,0.00,,,-99.99,,2013-01-31 00:32:00,
2013-01-30 18:42:00,20.0,18.0,-100.00,NNW,335,13.0,21.0,92,0.00,,,-99.99,,2013-01-31 00:42:00,
2013-01-30 18:52:00,20.0,17.0,-100.00,NW,325,12.0,24.0,90,0.00,,,-99.99,,2013-01-31 00:52:00,
2013-01-30 19:02:00,20.0,17.0,-100.00,NW,325,12.0,24.0,90,0.00,,,-99.99,,2013-01-31 01:02:00,
2013-01-30 19:11:00,19.0,17.0,-100.00,NW,320,11.0,22.0,90,0.00,,,-99.99,,2013-01-31 01:11:00,
2013-01-30 19:21:00,19.0,17.0,-100.00,NW,325,11.0,21.0,90,0.00,,,-99.99,,2013-01-31 01:21:00,
2013-01-30 19:32:00,19.0,16.0,-100.00,NW,315,12.0,18.0,87,0.00,,,-99.99,,2013-01-31 01:32:00,
2013-01-30 19:41:00,19.0,16.0,-100.00,NW,315,12.0,18.0,87,0.00,,,-99.99,,2013-01-31 01:41:00,
2013-01-30 19:52:00,18.0,15.0,-100.00,NW,320,8.0,19.0,86,0.00,,,-99.99,,2013-01-31 01:52:00,
2013-01-30 20:01:00,18.0,15.0,-100.00,NW,320,8.0,19.0,86,0.00,,,-99.99,,2013-01-31 02:01:00,
2013-01-30 20:11:00,18.0,15.0,-100.00,NW,315,9.0,14.0,86,0.00,,,-99.99,,2013-01-31 02:11:00,
2013-01-30 20:21:00,18.0,15.0,-100.00,NW,305,10.0,16.0,87,0.00,,,-99.99,,2013-01-31 02:21:00,
2013-01-30 20:32:00,17.0,14.0,-100.00,WNW,300,9.0,12.0,87,0.00,,,-99.99,,2013-01-31 02:32:00,
2013-01-30 20:41:00,17.0,14.0,-100.00,WNW,300,9.0,12.0,87,0.00,,,-99.99,,2013-01-31 02:41:00,
2013-01-30 20:52:00,17.0,14.0,-100.00,WNW,300,9.0,12.0,87,0.00,,,-99.99,,2013-01-31 02:52:00,
2013-01-30 21:03:00,17.0,14.0,-100.00,WNW,300,9.0,13.0,87,0.00,,,-99.99,,2013-01-31 03:03:00,
2013-01-30 21:11:00,17.0,14.0,-100.00,WNW,290,9.0,12.0,87,0.00,,,-99.99,,2013-01-31 03:11:00,
2013-01-30 21:21:00,17.0,14.0,-100.00,WNW,285,7.0,11.0,88,0.00,,,-99.99,,2013-01-31 03:21:00,
2013-01-30 21:32:00,17.0,15.0,-100.00,WNW,290,7.0,9.0,89,0.00,,,-99.99,,2013-01-31 03:32:00,
2013-01-30 21:41:00,18.0,15.0,-100.00,WNW,295,9.0,11.0,89,0.00,,,-99.99,,2013-01-31 03:41:00,
2013-01-30 21:51:00,18.0,16.0,-100.00,WNW,285,10.0,12.0,91,0.00,,,-99.99,,2013-01-31 03:51:00,
2013-01-30 22:02:00,18.0,16.0,-100.00,WNW,285,10.0,12.0,91,0.00,,,-99.99,,2013-01-31 04:02:00,
2013-01-30 22:11:00,19.0,17.0,-100.00,WNW,290,9.0,11.0,93,0.00,,,-99.99,,2013-01-31 04:11:00,
2013-01-30 22:22:00,19.0,17.0,-100.00,WNW,290,9.0,12.0,93,0.00,,,-99.99,,2013-01-31 04:22:00,
2013-01-30 22:31:00,20.0,18.0,-100.00,WNW,290,9.0,15.0,93,0.00,,,-99.99,,2013-01-31 04:31:00,
2013-01-30 22:41:00,20.0,18.0,-100.00,WNW,290,9.0,15.0,93,0.00,,,-99.99,,2013-01-31 04:41:00,
2013-01-30 22:51:00,20.0,19.0,-100.00,WNW,290,9.0,12.0,94,0.00,,,-99.99,,2013-01-31 04:51:00,
2013-01-30 23:03:00,20.0,19.0,-100.00,WNW,290,9.0,12.0,94,0.00,,,-99.99,,2013-01-31 05:03:00,
2013-01-30 23:11:00,20.0,19.0,-100.00,WNW,290,10.0,14.0,94,0.00,,,-99.99,,2013-01-31 05:11:00,
2013-01-30 23:22:00,20.0,19.0,-100.00,WNW,300,9.0,14.0,93,0.00,,,-99.99,,2013-01-31 05:22:00,
2013-01-30 23:32:00,20.0,19.0,-100.00,WNW,300,9.0,14.0,93,0.00,,,-99.99,,2013-01-31 05:32:00,
2013-01-30 23:41:00,20.0,19.0,-100.00,NW,310,11.0,19.0,95,0.00,,,-99.99,,2013-01-31 05:41:00,
2013-01-30 23:51:00,20.0,19.0,-100.00,NW,310,11.0,19.0,95,0.00,,,-99.99,,2013-01-31 05:51:00,